Date String (YYYY-MM-DD hh:mm:ss) UTC,Instrument flags,Ambient pressure (hPa),Sample flow (lpm),Bypass flow (lpm),Sample temperature (°C),Ambient temperature (°C),ASC tube jacket temperature (°C),LED temperature (°C),Box temperature (°C),Sample RH (%),Span deviation,Mass concentration (μg/m³),Mass concentration (μg/m³),Mass concentration (μg/m³)
DateTimeUTC,F1_M11,P_M11,Q1_M11,Q2_M11,T1_M11,T2_M11,T3_M11,T4_M11,T5_M11,U1_M11,ZSPAN_M11,X0_M11,X2_M11,X1_M11
2022-08-19 03:00:00,,0829.6,5.00,0.00,29.3,28.1,00.0,38.1,31.3,23.9,0000.0,0015.25,0006.77,0005.64
2022-08-19 03:01:00,,0829.6,4.99,0.00,29.4,28.3,00.0,38.1,31.4,23.6,0000.0,0014.93,0006.75,0005.62
2022-08-19 03:02:00,,0829.7,5.01,0.00,29.4,28.4,00.0,38.1,31.4,23.5,0000.0,0016.17,0006.74,0005.62
2022-08-19 03:03:00,,0829.6,5.00,0.00,29.5,28.5,00.0,38.1,31.5,23.1,0000.0,0016.32,0006.70,0005.61
2022-08-19 03:04:00,,0829.7,5.01,0.00,29.5,28.6,00.0,38.2,31.5,22.9,0000.0,0016.17,0006.68,0005.61
2022-08-19 03:05:00,,0829.8,5.01,0.00,29.5,28.5,00.0,38.2,31.5,22.2,0000.0,0016.79,0006.67,0005.58
2022-08-19 03:06:00,,0829.7,5.01,0.00,29.5,27.8,00.0,38.1,31.3,22.1,0000.0,0017.97,0006.64,0005.54
2022-08-19 03:07:00,,0829.8,5.01,0.00,29.4,27.2,00.0,38.1,31.1,22.1,0000.0,0018.74,0006.61,0005.52
2022-08-19 03:08:00,,0829.8,4.99,0.00,29.3,27.0,00.0,38.1,31.0,22.9,0000.0,0020.14,0006.63,0005.49
2022-08-19 03:09:00,,0829.8,5.00,0.00,29.3,27.1,00.0,38.0,30.9,23.3,0000.0,0020.29,0006.63,0005.47
2022-08-19 03:10:00,,0829.8,5.00,0.00,29.2,27.2,00.0,38.0,31.0,24.0,0000.0,0019.77,0006.61,0005.47
2022-08-19 03:11:00,,0829.8,5.00,0.00,29.2,27.4,00.0,38.0,31.0,23.7,0000.0,0019.89,0006.62,0005.47
2022-08-19 03:12:00,,0829.7,4.99,0.00,29.2,27.6,00.0,38.0,31.1,23.0,0000.0,0020.41,0006.61,0005.45
2022-08-19 03:13:00,,0829.8,5.02,0.00,29.3,27.7,00.0,38.0,31.2,22.9,0000.0,0019.54,0006.60,0005.43
2022-08-19 03:14:00,,0829.8,4.99,0.00,29.3,27.9,00.0,38.0,31.2,22.8,0000.0,0020.47,0006.60,0005.40
2022-08-19 03:15:00,,0829.8,5.00,0.00,29.3,28.0,00.0,38.0,31.3,22.9,0000.0,0021.13,0006.59,0005.38
2022-08-19 03:16:00,,0829.8,4.99,0.00,29.4,28.2,00.0,38.1,31.3,22.4,0000.0,0020.46,0006.62,0005.39
2022-08-19 03:17:00,,0829.8,5.00,0.00,29.4,28.3,00.0,38.1,31.4,21.5,0000.0,0019.71,0006.58,0005.37
2022-08-19 03:18:00,,0829.9,5.01,0.00,29.4,28.4,00.0,38.1,31.4,21.4,0000.0,0018.95,0006.56,0005.35
2022-08-19 03:19:00,,0829.8,5.01,0.00,29.5,28.5,00.0,38.1,31.5,22.0,0000.0,0017.64,0006.53,0005.33
2022-08-19 03:20:00,,0829.9,4.99,0.00,29.5,28.6,00.0,38.2,31.5,22.0,0000.0,0017.08,0006.49,0005.30
2022-08-19 03:21:00,,0829.9,4.99,0.00,29.6,28.7,00.0,38.2,31.6,21.3,0000.0,0017.11,0006.40,0005.23
2022-08-19 03:22:00,,0829.9,5.00,0.00,29.6,28.2,00.0,38.2,31.4,21.2,0000.0,0017.32,0006.26,0005.15
2022-08-19 03:23:00,,0829.9,5.00,0.00,29.5,27.3,00.0,38.1,31.1,21.3,0000.0,0016.90,0006.14,0005.09
2022-08-19 03:24:00,,0829.9,5.00,0.00,29.4,27.0,00.0,38.1,31.1,21.4,0000.0,0016.85,0006.04,0005.03
2022-08-19 03:25:00,,0829.9,5.00,0.00,29.3,27.0,00.0,38.1,31.0,21.4,0000.0,0015.51,0005.95,0004.97
2022-08-19 03:26:00,,0829.9,5.01,0.00,29.3,27.1,00.0,38.1,31.0,21.4,0000.0,0015.33,0005.86,0004.90
2022-08-19 03:27:00,,0829.9,4.99,0.00,29.3,27.3,00.0,38.1,31.1,21.5,0000.0,0015.24,0005.75,0004.83
2022-08-19 03:28:00,,0829.9,4.99,0.00,29.3,27.5,00.0,38.1,31.1,21.5,0000.0,0015.06,0005.70,0004.81
2022-08-19 03:29:00,,0829.9,5.01,0.00,29.3,27.6,00.0,38.1,31.2,21.5,0000.0,0015.74,0005.67,0004.79
2022-08-19 03:30:00,,0829.9,5.00,0.00,29.3,27.8,00.0,38.1,31.2,21.5,0000.0,0016.04,0005.63,0004.76
2022-08-19 03:31:00,,0830.0,5.00,0.00,29.3,28.0,00.0,38.1,31.3,21.5,0000.0,0015.58,0005.58,0004.71
2022-08-19 03:32:00,,0830.0,4.99,0.00,29.4,28.1,00.0,38.1,31.3,21.5,0000.0,0015.35,0005.59,0004.70
2022-08-19 03:33:00,,0830.1,5.00,0.00,29.4,28.3,00.0,38.1,31.4,21.4,0000.0,0015.14,0005.64,0004.70
2022-08-19 03:34:00,,0830.1,4.99,0.00,29.4,28.4,00.0,38.1,31.4,21.4,0000.0,0015.40,0005.66,0004.70
2022-08-19 03:35:00,,0830.1,5.01,0.00,29.5,28.5,00.0,38.1,31.5,21.4,0000.0,0015.45,0005.66,0004.69
2022-08-19 03:36:00,,0830.1,5.00,0.00,29.5,28.6,00.0,38.2,31.5,21.4,0000.0,0014.86,0005.62,0004.69
2022-08-19 03:37:00,,0830.1,5.00,0.00,29.6,28.7,00.0,38.2,31.6,21.3,0000.0,0014.27,0005.60,0004.70
2022-08-19 03:38:00,,0830.0,5.00,0.00,29.6,28.3,00.0,38.2,31.4,21.3,0000.0,0013.99,0005.65,0004.72
2022-08-19 03:39:00,,0830.1,5.00,0.00,29.5,27.5,00.0,38.1,31.2,21.3,0000.0,0013.94,0005.68,0004.73
2022-08-19 03:40:00,,0830.1,5.00,0.00,29.4,27.1,00.0,38.1,31.1,21.5,0000.0,0012.88,0005.70,0004.76
2022-08-19 03:41:00,,0830.1,5.00,0.00,29.3,27.1,00.0,38.1,31.0,21.6,0000.0,0012.46,0005.70,0004.78
2022-08-19 03:42:00,,0830.1,4.99,0.00,29.3,27.2,00.0,38.1,31.0,21.7,0000.0,0012.50,0005.71,0004.80
2022-08-19 03:43:00,,0830.1,5.01,0.00,29.3,27.3,00.0,38.1,31.0,21.7,0000.0,0012.97,0005.74,0004.82
2022-08-19 03:44:00,,0830.1,4.99,0.00,29.3,27.5,00.0,38.1,31.1,21.7,0000.0,0012.74,0005.70,0004.83
2022-08-19 03:45:00,,0830.1,5.00,0.00,29.3,27.7,00.0,38.1,31.2,21.6,0000.0,0011.93,0005.70,0004.85
2022-08-19 03:46:00,,0830.0,5.01,0.00,29.3,27.8,00.0,38.1,31.2,21.7,0000.0,0011.56,0005.78,0004.87
2022-08-19 03:47:00,,0830.1,4.99,0.00,29.3,28.0,00.0,38.1,31.3,21.8,0000.0,0011.87,0005.82,0004.88
2022-08-19 03:48:00,,0830.1,5.00,0.00,29.4,28.1,00.0,38.1,31.3,21.6,0000.0,0012.28,0005.85,0004.89
2022-08-19 03:49:00,,0830.0,5.01,0.00,29.4,28.3,00.0,38.1,31.4,21.5,0000.0,0012.71,0005.85,0004.89
2022-08-19 03:50:00,,0830.0,5.00,0.00,29.4,28.4,00.0,38.1,31.4,21.5,0000.0,0012.70,0005.86,0004.89
2022-08-19 03:51:00,,0830.1,5.00,0.00,29.5,28.5,00.0,38.2,31.5,21.5,0000.0,0013.00,0005.84,0004.87
2022-08-19 03:52:00,,0830.0,4.99,0.00,29.5,28.6,00.0,38.2,31.5,21.4,0000.0,0014.48,0005.85,0004.87
2022-08-19 03:53:00,,0830.0,5.00,0.00,29.6,28.7,00.0,38.2,31.6,21.1,0000.0,0014.99,0005.83,0004.85
2022-08-19 03:54:00,,0830.1,5.01,0.00,29.6,28.6,00.0,38.2,31.5,21.2,0000.0,0015.15,0005.79,0004.84
2022-08-19 03:55:00,,0830.0,4.99,0.00,29.6,27.8,00.0,38.2,31.3,21.7,0000.0,0015.53,0005.77,0004.83
2022-08-19 03:56:00,,0830.0,5.01,0.00,29.5,27.2,00.0,38.1,31.2,21.5,0000.0,0015.54,0005.73,0004.82
2022-08-19 03:57:00,,0830.0,5.01,0.00,29.4,27.0,00.0,38.1,31.1,21.5,0000.0,0015.43,0005.67,0004.79
2022-08-19 03:58:00,,0830.0,4.98,0.00,29.3,27.0,00.0,38.1,31.0,21.7,0000.0,0015.18,0005.68,0004.78
2022-08-19 03:59:00,,0830.0,5.01,0.00,29.3,27.2,00.0,38.1,31.0,21.4,0000.0,0014.91,0005.66,0004.76
